Location: Newark
(39.5667°N, 8.9833°E)
Time: 11:16:15
(UTC+00:00)

Transit 2A - Pass Details

Date: 27 October 2019
Orbit: 601 x 957 km, 66.7° (Epoch: 20 November)

Event Time Altitude Azimuth Distance (km) Brightness Sun altitude
Rises 03:24:47 0° 311° (NW) 2,856 - -27.8°
Reaches altitude 10° 03:27:53 10° 287° (WNW) 1,948 - -27.2°
Maximum altitude 03:30:16 15° 253° (WSW) 1,675 - -26.8°
Drops below altitude 10° 03:32:40 10° 220° (SW) 1,971 - -26.3°
Sets 03:35:52 0° 196° (SSW) 2,913 - -25.7°
